Content
SEND FEEDBACK

Daily
Averages
Monthly
Summary
United States of America

UKIAH, CALIFORNIA


Home > North America > United States > California
Elevation: 615 feet     Latitude: 39 08N     Longitude: 123 12W

WEATHER
 
SELECT A DAY
Number of Records: 217,307;   Date Range: 1/1/95 - 9/22/14
 
SHARE

PRINT THIS DATA

[ ← Previous Day ]
WEATHER ALMANAC - JANUARY 18, 2013
[ Next Day → ]
[ °C ]   °F
Weather ElementAverageHighLow
Temperature42 °F64.9 °F (2:56 pm)28 °F (5:56 am)
Dewpoint29.8 °F33.1 °F (9:56 am)25 °F (5:56 am)
Humidity67.4 %92 % (1:56 am)24 % (1:56 pm)
Barometer30.20 in30.27 in (8:56 am)30.14 in (2:56 pm)
Wind Speed0.3 mph3.5 mph (11:56 am)
Weather ElementAverage
Visibility9.4 mi
Wind DirectionNNE (11.7 °)

Weather ElementTotal
Precipitation---
Heating Degree Days18.6 (Base 65)
Averaged from 23 records on January 18, 2013
WEATHER CONDITIONS BREAKOUT
WIND DIRECTION BREAKOUT
WEATHER BY HOUR - JANUARY 18, 2013
[ °C ]   °F
Local TimeTemperatureDewpointHumidityBarometerVisibilityWind DirectionWind SpeedGust SpeedPrecipitationEventsConditions
1:56 AM30.0 °F28.0 °F92 %30.23 in10.0 miCalmClear
2:56 AM32.0 °F28.9 °F88 %30.22 in10.0 miCalmClear
3:56 AM30.0 °F28.0 °F92 %30.22 in10.0 miCalmClear
4:56 AM28.9 °F27.0 °F92 %30.22 in10.0 miCalmClear
5:56 AM28.0 °F25.0 °F88 %30.22 in10.0 miCalmClear
6:56 AM28.0 °F25.0 °F88 %30.23 in10.0 miCalmClear
7:56 AM28.0 °F25.0 °F88 %30.26 in10.0 miCalmClear
8:56 AM34.0 °F30.0 °F85 %30.27 in10.0 miCalmClear
9:56 AM39.9 °F33.1 °F77 %30.27 in10.0 miCalmClear
10:56 AM46.9 °F32.0 °F56 %30.25 in10.0 miCalmClear
11:56 AM55.0 °F30.0 °F38 %30.22 in10.0 miVariable3.5 mphClear
12:56 PM59.0 °F30.9 °F35 %30.18 in10.0 miCalmClear
1:56 PM63.0 °F25.0 °F24 %30.16 in10.0 miCalmClear
2:56 PM64.9 °F28.9 °F26 %30.14 in10.0 miCalmClear
3:56 PM60.1 °F33.1 °F36 %30.14 in10.0 miWest (270°)3.5 mphClear
4:56 PM54.0 °F32.0 °F43 %30.15 in10.0 miCalmClear
5:56 PM46.9 °F32.0 °F56 %30.16 in9.0 miCalmClear
6:56 PM45.0 °F33.1 °F63 %30.17 in9.0 miCalmClear
7:56 PM43.0 °F33.1 °F68 %30.19 in8.0 miCalmClear
8:56 PM41.0 °F32.0 °F70 %30.19 in6.0 miCalmHaze
9:56 PM37.9 °F32.0 °F79 %30.19 in9.0 miCalmClear
10:56 PM36.0 °F30.9 °F82 %30.20 in7.0 miCalmClear
11:56 PM34.0 °F30.0 °F85 %30.20 in8.0 miCalmClear
Hourly data recorded from KUKI, located miles away from Ukiah, California







STORIES FROM OUR PARTNERS